Torna al catalogo

CZ-4C DEB

AttivoSSO
NORAD 37568·DEBRIS·🇨🇳 China

Lanciato Aug 9, 2010 da Taiyuan Satellite Launch Center

Loading…

Prossimi Passaggi (prossime 24 ore)

TLE

AggiornatoSource: Space-Track

Epoca: Sep 13, 2026, 17:04 UTC

1 37568U 10038D   26256.71156881  .00003251  00000-0  41037-3 0  9998
2 37568  97.9570 350.7998 0115116 342.4892  17.2363 14.78034141848865

Traccia CZ-4C DEB in tempo reale con AllMySat

Download on the App Store